User: anonymous   Login
Location: Radford
(37.1320°N, 80.5770°W)
Time: 12:02:18
(UTC-05:00)
Language:

Okean 1-7 - Orbit

View from above orbital plane
View from above orbital plane
View from above satellite
View from above satellite

Ground track
Ground track

The orbit data is extracted from the following two-line orbital elements,

1 23317U 94066A   17019.18827822  .00000182  00000-0  17384-4 0  9995
2 23317  82.5371 258.4129 0019314 195.4513 164.6118 14.87334159203794
Epoch (UTC): 19 January 2017 04:31:07
Eccentricity: 0.0019314
inclination: 82.5371°
perigee height: 593 km
apogee height: 620 km
right ascension of ascending node: 258.4129°
argument of perigee: 195.4513°
revolutions per day: 14.87334159
mean anomaly at epoch: 164.6118°
orbit number at epoch: 20379

The dashed part of the orbit path shows where the satellite is in the earth's shadow,  

DLR